Location: *
(58.7167°N, 26.1833°E)
Time: 02:05:33
(UTC+00:00)

BREEZE M DEB (TANK) - Pass Details

Date: 25 August 2019
Orbit: 282 x 14544 km, 49.5° (Epoch: 17 October)

Event Time Altitude Azimuth Distance (km) Brightness Sun altitude
Exits shadow 21:57:58 19° 235° (SW) 1,775 4.6 -20.6°
Maximum altitude 22:01:03 39° 176° (S) 1,719 4.2 -20.6°
Drops below altitude 10° 22:14:35 10° 115° (ESE) 6,709 7.5 -20.7°
Sets 22:24:40 0° 112° (ESE) 10,122 8.5 -20.7°
